Regional Weather Roundup
Issued by NWS San Angelo, TX

Home | Current Version | Previous Version | Text Only | Print | Product List | Glossary On
Versions: 1 2 3 4 5 6 7 8 9 10 11 12 13 14 15 16 17 18 19 20 21 22 23 24 25 26 27 28 29 30 31 32 33 34 35 36 37 38 39 40 41 42 43 44 45 46 47 48 49 50
000
ASUS44 KSJT 010311
RWRSJT
WEST CENTRAL TEXAS REGIONAL WEATHER ROUNDUP
NATIONAL WEATHER SERVICE SAN ANGELO TX
1000 PM CDT WED AUG 31 2016

NOTE: "FAIR" INDICATES FEW OR NO CLOUDS BELOW 12,000 FEET WITH NO
SIGNIFICANT WEATHER AND/OR OBSTRUCTIONS TO VISIBILITY.

TXZ049-054-064>066-071>073-076>078-098-099-113-114-127-128-139-140-
154-155-168>170-010400
...LOCATIONS ACROSS WEST CENTRAL TEXAS...

CITY           SKY/WX    TMP DP  RH WIND       PRES   REMARKS
SAN ANGELO     CLOUDY    80  67  64 NE3       30.05R
ABILENE        TSTM      74  70  87 N13       30.10R FOG
DYESS AFB      LGT RAIN  72  69  91 N18       30.08R
JUNCTION       CLEAR     80  67  64 SW3       30.04R
SWEETWATER     CLOUDY    73  73  99 N5        30.16R
BROWNWOOD      CLOUDY    79  68  69 NE5       30.03R
COLEMAN        LGT RAIN  81  68  64 NE13      30.05R
SONORA         CLOUDY    72  70  94 W3        30.11S
OZONA          FAIR      77  63  61 NE6       30.10R
BRADY          NOT AVBL
$$

TEXAS PANHANDLE/OKLAHOMA PANHANDLE

CITY           SKY/WX    TMP DP  RH WIND       PRES   REMARKS
AMARILLO       CLOUDY    68  64  87 E6        30.20R
BORGER         CLOUDY    70  64  81 E5        30.19R
CANADIAN       CLOUDY    69  69  99 CALM      30.17R
DALHART        CLEAR     67  61  81 SE7       30.24R
DUMAS          PTCLDY    65  62  89 E6        30.22R
GUYMON         NOT AVBL
HEREFORD       CLOUDY    68  65  89 CALM      30.23R
PAMPA          CLOUDY    68  66  94 SE3       30.21R
PERRYTON       PTCLDY    69  67  93 NE5       30.19R
$$

SOUTHERN PANHANDLE/SOUTH PLAINS/ROLLING PLAINS

CITY           SKY/WX    TMP DP  RH WIND       PRES   REMARKS
LUBBOCK        LGT RAIN  69  67  93 NE5       30.18R
SNYDER           N/A     71  69  92 E8        30.15R
CHILDRESS        N/A    N/A N/A N/A MISG      30.14R
SEMINOLE       CLOUDY    69  67  94 CALM      30.18R
$$

PERMIAN BASIN

CITY           SKY/WX    TMP DP  RH WIND       PRES   REMARKS
MIDLAND        CLOUDY    73  67  81 SW5       30.15R
ODESSA         CLOUDY    72  66  81 CALM      30.16R
WINK           CLOUDY    71  67  87 N3        30.12R
$$

FAR WEST/SOUTHWEST MOUNTAINS/TRANS PECOS

CITY           SKY/WX    TMP DP  RH WIND       PRES   REMARKS
ALPINE         CLOUDY    67  63  86 CALM      30.28R
DRYDEN           N/A     78  71  79 N5        30.05R
EL PASO        PTCLDY    76  64  66 E7        30.14R
FORT STOCKTON  CLOUDY    74  67  78 NE9       30.13R
GUADALUPE PASS HVY RAIN  64  64 100 NE25      30.28R VSB 3/4
MARFA          MOCLDY   N/A N/A N/A NE8       30.25R
PECOS          CLOUDY    75  67  76 NE6       30.12R
$$

DALLAS/FORT WORTH METROPLEX

CITY           SKY/WX    TMP DP  RH WIND       PRES   REMARKS
DFW AIRPORT    MOCLDY    85  70  60 N5        29.96R
FTW MEACHAM    PTCLDY    85  71  63 N6        29.97R
DAL-EXECUTIVE  MOCLDY    83  71  67 CALM      29.97R
GRAND PRAIRIE  PTCLDY    86  68  54 CALM      29.98R
ADDISON        NOT AVBL
MESQUITE       CLOUDY    83  70  66 CALM      29.96R
LANCASTER      PTCLDY    81  72  74 CALM      29.97R
$$

NORTH CENTRAL TEXAS

CITY           SKY/WX    TMP DP  RH WIND       PRES   REMARKS
SHRMAN/DENISON PTCLDY    79  73  82 N5        30.02R
GAINESVILLE      N/A     76  69  78 N6        30.04R
BRIDGEPORT     PTCLDY    77  71  81 N5        30.04R
DENTON         PTCLDY    81  70  69 N8        29.99R
WAXAHACHIE     CLEAR     78  72  80 CALM      29.98R
GRANBURY       PTCLDY    80  71  71 CALM      30.00R
$$

WESTERN NORTH TEXAS

CITY           SKY/WX    TMP DP  RH WIND       PRES   REMARKS
WICHITA FALLS  CLOUDY    75  70  84 NE8       30.05R
VERNON         MOCLDY    77  66  69 NE6       30.08S
BRECKENRIDGE   MOCLDY    76  71  83 N13       30.05R
COMANCHE       CLEAR     81  70  69 CALM      30.02S
$$

CENTRAL AND SOUTH CENTRAL TEXAS

CITY           SKY/WX    TMP DP  RH WIND       PRES   REMARKS
AUSTIN/BERGSTM PTCLDY    79  73  82 VRB3      29.95R
WACO           CLEAR     80  74  81 NE3       29.96R
HILLSBORO      CLEAR     79  70  72 E5        29.97R
TEMPLE         CLEAR     80  73  79 NE3       29.98
KILLEEN-GRAY   CLEAR     83  71  66 E7        29.98R
FORT HOOD      CLEAR     82  71  70 E5        29.96R
GEORGETOWN     CLEAR     81  72  74 N3        29.96
LAGO VISTA     MOCLDY    82  70  67 CALM      30.00R
SAN MARCOS     NOT AVBL
NEW BRAUNFELS  CLEAR     78  74  87 N5        29.94R
RANDOLPH AFB   PTCLDY    76  73  88 NW5       29.96R
SAN ANTONIO    PTCLDY    80  67  64 W5        29.97R
STINSON        CLOUDY    81  74  79 CALM      29.94R
PLEASANTON     NOT AVBL
LA GRANGE      CLEAR     82  76  84 SW3       29.92R
GIDDINGS       CLEAR     78  74  88 CALM      29.98R
$$

EAST TEXAS

CITY           SKY/WX    TMP DP  RH WIND       PRES   REMARKS
PARIS          CLEAR     81  70  69 N6        29.98R
CLARKSVILLE    NOT AVBL
TYLER          CLEAR     84  72  67 CALM      29.96R
LONGVIEW       CLEAR     79  74  84 CALM      29.94R
PALESTINE      CLEAR     80  74  83 CALM      29.96R
NACOGDOCHES    CLEAR    N/A N/A N/A CALM      29.93R
$$

TEXAS HILL COUNTRY AND EDWARDS PLATEAU

CITY           SKY/WX    TMP DP  RH WIND       PRES   REMARKS
LLANO          CLEAR     79  75  89 CALM      30.02R
HORSESHOE BAY  FAIR      77  72  83 CALM      29.99R
KERRVILLE      CLOUDY    76  72  86 CALM      30.03R
FREDERICKSBRG  CLEAR     75  69  82 NW5       30.03R
ROCKSPRINGS    CLOUDY    75  70  83 CALM      30.09R
HONDO          PTCLDY    76  73  91 N7        29.98R
UVALDE         CLOUDY    75  72  89 CALM      29.99R FOG
DEL RIO        MOCLDY    82  73  74 NE3       29.97R
$$

SOUTHEAST TEXAS

CITY           SKY/WX    TMP DP  RH WIND       PRES   REMARKS
COLLEGE STN    CLEAR     85  73  67 NE7       29.93R
CALDWELL       CLEAR     81  73  78 CALM      29.97R
CROCKETT       CLEAR     77  77 100 CALM      29.97R
BRENHAM        CLEAR     82  76  82 CALM      29.94R
HUNTSVILLE     CLEAR     79  73  82 CALM      29.94R
CONROE         CLEAR     79  77  94 CALM      29.93R
HOUSTON BUSH   PTCLDY    80  75  84 NW3       29.91R
HOUSTON HOBBY  MOCLDY    83  75  77 SW5       29.90R
PERLAND        PTCLDY    82  77  84 CALM      29.91R
WHARTON        NOT AVBL
$$

THE UPPER TEXAS COAST

CITY           SKY/WX    TMP DP  RH WIND       PRES   REMARKS
ORANGE         CLEAR     79  76  91 CALM      29.91R
PORT ARTHUR    PTCLDY    82  74  76 MISG      29.89R
GALVESTON      MOCLDY    80  76  87 NE14G32   29.92R THUNDER
ANGLETON       PTCLDY    80  77  90 CALM      29.90R
BAY CITY       PTCLDY    78  76  95 CALM      29.92R
$$

TEXAS COASTAL BEND, RIO GRANDE PLAINS DEEP SOUTH TEXAS

CITY           SKY/WX    TMP DP  RH WIND       PRES   REMARKS
VICTORIA       PTCLDY    78  75  90 NW6       29.92R
BEEVILLE       MOCLDY    77  77 100 NW3       29.92R
ROCKPORT       CLEAR     78  74  87 CALM      29.91R
PORT ARANSAS   CLEAR     81  77  87 CALM      29.91R
PORT LAVACA    MOCLDY    79  79 100 CALM      29.92R
CORPUS CHRISTI CLOUDY    80  75  84 N3        29.91R
KINGSVILLE NAS CLOUDY    80  77  90 NE3       29.91R
COTULLA        CLOUDY    83  69  62 E5        29.95R
LAREDO         CLOUDY    83  72  69 SE8       29.95R
BROWNSVILLE    CLEAR     82  77  84 N3        29.90R
PORT ISABEL    CLEAR     83  78  85 NE3       29.89R
HEBBRONVILLE   CLEAR     80  72  75 CALM      29.96R
MCALLEN        CLEAR     87  72  60 E7        29.91R
WESLACO        CLEAR     77  44  31 E5        29.90R
FALFURRIAS     MOCLDY    79  75  87 CALM      29.92R
EDINBURG       CLEAR     83  73  69 NE3       29.92R
$$




USA.gov is the U.S. government's official web portal to all federal, state and local government web resources and services.